Time,TemperatureF,DewpointF,PressureIn,WindDirection,WindDirectionDegrees,WindSpeedMPH,WindSpeedGustMPH,Humidity,HourlyPrecipIn,Conditions,Clouds,dailyrainin,SoftwareType,DateUTC
2013-02-07 00:00:00,41.0,33.0,30.10,NE,45,4.0,6.0,73,0.00,,,0.00,Rainwise IP-100,2013-02-07 06:00:00,
2013-02-07 00:05:00,41.0,33.0,30.09,NE,45,2.0,5.0,73,0.00,,,0.00,Rainwise IP-100,2013-02-07 06:05:00,
2013-02-07 00:10:00,41.0,33.0,30.09,NE,45,0.0,4.0,74,0.00,,,0.00,Rainwise IP-100,2013-02-07 06:10:00,
2013-02-07 00:15:00,41.0,33.0,30.09,NE,45,4.0,5.0,73,0.00,,,0.00,Rainwise IP-100,2013-02-07 06:15:00,
2013-02-07 00:20:00,41.0,35.0,30.09,NE,45,3.0,5.0,78,0.00,,,0.00,Rainwise IP-100,2013-02-07 06:20:00,
2013-02-07 00:23:00,41.0,33.0,30.09,NE,45,4.0,5.0,74,0.00,,,0.00,Rainwise IP-100,2013-02-07 06:23:00,
2013-02-07 00:28:00,41.0,32.0,30.09,East,90,4.0,4.0,71,0.00,,,0.00,Rainwise IP-100,2013-02-07 06:28:00,
2013-02-07 00:33:00,41.0,32.0,30.09,NE,45,6.0,7.0,70,0.00,,,0.00,Rainwise IP-100,2013-02-07 06:33:00,
2013-02-07 00:38:00,41.0,33.0,30.08,North,360,6.0,6.0,72,0.00,,,0.00,Rainwise IP-100,2013-02-07 06:38:00,
2013-02-07 00:43:00,41.0,35.0,30.08,North,360,4.0,6.0,76,0.00,,,0.00,Rainwise IP-100,2013-02-07 06:43:00,
2013-02-07 00:48:00,41.0,33.0,30.09,North,360,0.0,5.0,72,0.00,,,0.00,Rainwise IP-100,2013-02-07 06:48:00,
2013-02-07 00:53:00,41.0,32.0,30.09,North,360,0.0,0.0,71,0.00,,,0.00,Rainwise IP-100,2013-02-07 06:53:00,
2013-02-07 00:58:00,41.0,32.0,30.09,East,90,0.0,6.0,71,0.00,,,0.00,Rainwise IP-100,2013-02-07 06:58:00,
2013-02-07 01:03:00,41.0,32.0,30.09,East,90,0.0,4.0,70,0.00,,,0.00,Rainwise IP-100,2013-02-07 07:03:00,
2013-02-07 01:08:00,41.0,32.0,30.07,East,90,0.0,5.0,70,0.00,,,0.00,Rainwise IP-100,2013-02-07 07:08:00,
2013-02-07 01:13:00,41.0,32.0,30.07,South,180,3.0,4.0,71,0.00,,,0.00,Rainwise IP-100,2013-02-07 07:13:00,
2013-02-07 01:18:00,41.0,32.0,30.08,SSW,202,4.0,4.0,71,0.00,,,0.00,Rainwise IP-100,2013-02-07 07:18:00,
2013-02-07 01:23:00,41.0,32.0,30.08,South,180,3.0,6.0,70,0.00,,,0.00,Rainwise IP-100,2013-02-07 07:23:00,
2013-02-07 01:28:00,42.0,32.0,30.08,East,90,2.0,6.0,68,0.00,,,0.00,Rainwise IP-100,2013-02-07 07:28:00,
2013-02-07 01:33:00,42.0,32.0,30.08,SSE,157,3.0,7.0,67,0.00,,,0.00,Rainwise IP-100,2013-02-07 07:33:00,
2013-02-07 01:38:00,42.0,32.0,30.08,ESE,112,3.0,6.0,68,0.00,,,0.00,Rainwise IP-100,2013-02-07 07:38:00,
2013-02-07 01:43:00,42.0,33.0,30.08,NE,45,1.0,6.0,69,0.00,,,0.00,Rainwise IP-100,2013-02-07 07:43:00,
2013-02-07 01:48:00,42.0,36.0,30.07,NE,45,0.0,5.0,76,0.00,,,0.00,Rainwise IP-100,2013-02-07 07:48:00,
2013-02-07 01:53:00,42.0,33.0,30.07,NE,45,2.0,3.0,72,0.00,,,0.00,Rainwise IP-100,2013-02-07 07:53:00,
2013-02-07 01:58:00,42.0,33.0,30.07,NE,45,3.0,3.0,70,0.00,,,0.00,Rainwise IP-100,2013-02-07 07:58:00,
2013-02-07 02:03:00,42.0,32.0,30.07,East,90,4.0,4.0,68,0.00,,,0.00,Rainwise IP-100,2013-02-07 08:03:00,
2013-02-07 02:08:00,42.0,32.0,30.07,East,90,1.0,5.0,68,0.00,,,0.00,Rainwise IP-100,2013-02-07 08:08:00,
2013-02-07 02:13:00,42.0,33.0,30.07,NE,45,3.0,4.0,71,0.00,,,0.00,Rainwise IP-100,2013-02-07 08:13:00,
2013-02-07 02:18:00,42.0,33.0,30.07,NE,45,3.0,8.0,69,0.00,,,0.00,Rainwise IP-100,2013-02-07 08:18:00,
2013-02-07 02:23:00,42.0,32.0,30.07,NNW,337,4.0,6.0,68,0.00,,,0.00,Rainwise IP-100,2013-02-07 08:23:00,
2013-02-07 02:28:00,43.0,33.0,30.07,ESE,112,4.0,5.0,68,0.00,,,0.00,Rainwise IP-100,2013-02-07 08:28:00,
2013-02-07 02:33:00,42.0,33.0,30.07,ENE,67,3.0,7.0,69,0.00,,,0.00,Rainwise IP-100,2013-02-07 08:33:00,
2013-02-07 02:38:00,42.0,35.0,30.07,NE,45,2.0,7.0,74,0.00,,,0.00,Rainwise IP-100,2013-02-07 08:38:00,
2013-02-07 02:43:00,42.0,33.0,30.07,NNE,22,3.0,9.0,71,0.00,,,0.00,Rainwise IP-100,2013-02-07 08:43:00,
2013-02-07 02:48:00,42.0,35.0,30.07,North,360,2.0,7.0,73,0.00,,,0.00,Rainwise IP-100,2013-02-07 08:48:00,
2013-02-07 02:53:00,41.0,33.0,30.07,North,360,3.0,6.0,74,0.00,,,0.00,Rainwise IP-100,2013-02-07 08:53:00,
2013-02-07 02:58:00,41.0,35.0,30.07,North,360,5.0,5.0,75,0.00,,,0.00,Rainwise IP-100,2013-02-07 08:58:00,
2013-02-07 03:03:00,41.0,33.0,30.07,North,360,2.0,5.0,74,0.00,,,0.00,Rainwise IP-100,2013-02-07 09:03:00,
2013-02-07 03:08:00,41.0,35.0,30.06,NNE,22,4.0,6.0,77,0.00,,,0.00,Rainwise IP-100,2013-02-07 09:08:00,
2013-02-07 03:13:00,41.0,33.0,30.06,NNE,22,6.0,6.0,74,0.00,,,0.00,Rainwise IP-100,2013-02-07 09:13:00,
2013-02-07 03:18:00,41.0,33.0,30.07,ENE,67,5.0,6.0,73,0.00,,,0.00,Rainwise IP-100,2013-02-07 09:18:00,
2013-02-07 03:23:00,41.0,33.0,30.07,SE,135,2.0,6.0,72,0.00,,,0.00,Rainwise IP-100,2013-02-07 09:23:00,
2013-02-07 03:28:00,42.0,33.0,30.06,ESE,112,6.0,6.0,70,0.00,,,0.00,Rainwise IP-100,2013-02-07 09:28:00,
2013-02-07 03:33:00,42.0,33.0,30.06,SE,135,4.0,6.0,70,0.00,,,0.00,Rainwise IP-100,2013-02-07 09:33:00,
2013-02-07 03:38:00,41.0,32.0,30.05,SE,135,4.0,5.0,70,0.00,,,0.00,Rainwise IP-100,2013-02-07 09:38:00,
2013-02-07 03:43:00,42.0,33.0,30.05,ESE,112,4.0,8.0,69,0.00,,,0.00,Rainwise IP-100,2013-02-07 09:43:00,
2013-02-07 03:48:00,42.0,33.0,30.04,East,90,2.0,7.0,70,0.00,,,0.00,Rainwise IP-100,2013-02-07 09:48:00,
2013-02-07 03:53:00,42.0,33.0,30.04,South,180,4.0,7.0,69,0.00,,,0.00,Rainwise IP-100,2013-02-07 09:53:00,
2013-02-07 03:58:00,42.0,33.0,30.03,ESE,112,1.0,7.0,69,0.00,,,0.00,Rainwise IP-100,2013-02-07 09:58:00,
2013-02-07 04:03:00,43.0,33.0,30.03,SE,135,10.0,10.0,68,0.00,,,0.00,Rainwise IP-100,2013-02-07 10:03:00,
2013-02-07 04:08:00,43.0,33.0,30.03,East,90,6.0,10.0,68,0.00,,,0.00,Rainwise IP-100,2013-02-07 10:08:00,
2013-02-07 04:13:00,43.0,33.0,30.03,SE,135,2.0,8.0,67,0.00,,,0.00,Rainwise IP-100,2013-02-07 10:13:00,
2013-02-07 04:18:00,43.0,32.0,30.02,ENE,67,1.0,10.0,66,0.00,,,0.00,Rainwise IP-100,2013-02-07 10:18:00,
2013-02-07 04:23:00,44.0,33.0,30.02,ENE,67,5.0,7.0,65,0.00,,,0.00,Rainwise IP-100,2013-02-07 10:23:00,
2013-02-07 04:28:00,43.0,33.0,30.03,NNW,337,4.0,8.0,69,0.00,,,0.00,Rainwise IP-100,2013-02-07 10:28:00,
2013-02-07 04:33:00,42.0,36.0,30.03,NW,315,4.0,6.0,76,0.00,,,0.00,Rainwise IP-100,2013-02-07 10:33:00,
2013-02-07 04:38:00,41.0,33.0,30.04,North,360,1.0,5.0,74,0.00,,,0.00,Rainwise IP-100,2013-02-07 10:38:00,
2013-02-07 04:43:00,42.0,33.0,30.04,NNE,22,5.0,7.0,72,0.00,,,0.00,Rainwise IP-100,2013-02-07 10:43:00,
2013-02-07 04:48:00,42.0,33.0,30.04,NE,45,5.0,7.0,71,0.00,,,0.00,Rainwise IP-100,2013-02-07 10:48:00,
2013-02-07 04:53:00,42.0,33.0,30.04,NNE,22,6.0,7.0,72,0.00,,,0.00,Rainwise IP-100,2013-02-07 10:53:00,
2013-02-07 04:58:00,42.0,35.0,30.03,North,360,4.0,7.0,74,0.00,,,0.00,Rainwise IP-100,2013-02-07 10:58:00,
2013-02-07 05:03:00,41.0,33.0,30.03,NNW,337,3.0,6.0,74,0.00,,,0.00,Rainwise IP-100,2013-02-07 11:03:00,
2013-02-07 05:08:00,41.0,33.0,30.03,NNE,22,1.0,6.0,73,0.00,,,0.00,Rainwise IP-100,2013-02-07 11:08:00,
2013-02-07 05:13:00,41.0,33.0,30.03,NE,45,2.0,3.0,73,0.00,,,0.00,Rainwise IP-100,2013-02-07 11:13:00,
2013-02-07 05:18:00,41.0,35.0,30.03,NE,45,2.0,3.0,75,0.00,,,0.00,Rainwise IP-100,2013-02-07 11:18:00,
2013-02-07 05:23:00,41.0,35.0,30.03,NE,45,1.0,3.0,78,0.00,,,0.00,Rainwise IP-100,2013-02-07 11:23:00,
2013-02-07 05:28:00,40.0,35.0,30.04,NE,45,2.0,2.0,78,0.00,,,0.00,Rainwise IP-100,2013-02-07 11:28:00,
2013-02-07 05:33:00,40.0,35.0,30.04,NE,45,1.0,2.0,78,0.00,,,0.00,Rainwise IP-100,2013-02-07 11:33:00,
2013-02-07 05:38:00,40.0,35.0,30.03,NNE,22,0.0,4.0,78,0.00,,,0.00,Rainwise IP-100,2013-02-07 11:38:00,
2013-02-07 05:43:00,41.0,35.0,30.03,ENE,67,4.0,4.0,76,0.00,,,0.00,Rainwise IP-100,2013-02-07 11:43:00,
2013-02-07 05:48:00,41.0,33.0,30.03,NE,45,0.0,5.0,74,0.00,,,0.00,Rainwise IP-100,2013-02-07 11:48:00,
2013-02-07 05:53:00,41.0,33.0,30.03,NE,45,2.0,4.0,74,0.00,,,0.00,Rainwise IP-100,2013-02-07 11:53:00,
2013-02-07 05:58:00,41.0,33.0,30.03,NE,45,3.0,5.0,73,0.00,,,0.00,Rainwise IP-100,2013-02-07 11:58:00,
2013-02-07 06:03:00,41.0,33.0,30.03,NE,45,0.0,4.0,74,0.00,,,0.00,Rainwise IP-100,2013-02-07 12:03:00,
2013-02-07 06:08:00,40.0,33.0,30.03,North,360,4.0,4.0,76,0.00,,,0.00,Rainwise IP-100,2013-02-07 12:08:00,
2013-02-07 06:13:00,40.0,35.0,30.03,North,360,3.0,4.0,79,0.00,,,0.00,Rainwise IP-100,2013-02-07 12:13:00,
2013-02-07 06:18:00,39.0,33.0,30.03,North,360,3.0,5.0,78,0.00,,,0.00,Rainwise IP-100,2013-02-07 12:18:00,
2013-02-07 06:23:00,39.0,33.0,30.03,North,360,5.0,5.0,78,0.00,,,0.00,Rainwise IP-100,2013-02-07 12:23:00,
2013-02-07 06:28:00,39.0,33.0,30.02,North,360,2.0,5.0,78,0.00,,,0.00,Rainwise IP-100,2013-02-07 12:28:00,
2013-02-07 06:33:00,39.0,33.0,30.02,NE,45,3.0,4.0,80,0.00,,,0.00,Rainwise IP-100,2013-02-07 12:33:00,
2013-02-07 06:38:00,39.0,33.0,30.03,NNE,22,4.0,5.0,81,0.00,,,0.00,Rainwise IP-100,2013-02-07 12:38:00,
2013-02-07 06:43:00,39.0,33.0,30.03,North,360,5.0,6.0,80,0.00,,,0.00,Rainwise IP-100,2013-02-07 12:43:00,
2013-02-07 06:48:00,38.0,32.0,30.03,North,360,5.0,6.0,80,0.00,,,0.00,Rainwise IP-100,2013-02-07 12:48:00,
2013-02-07 06:53:00,38.0,33.0,30.03,North,360,4.0,6.0,81,0.00,,,0.00,Rainwise IP-100,2013-02-07 12:53:00,
2013-02-07 06:58:00,39.0,33.0,30.02,North,360,2.0,7.0,79,0.00,,,0.00,Rainwise IP-100,2013-02-07 12:58:00,
2013-02-07 07:03:00,39.0,33.0,30.02,West,270,0.0,6.0,78,0.00,,,0.00,Rainwise IP-100,2013-02-07 13:03:00,
2013-02-07 07:08:00,38.0,32.0,30.01,North,360,5.0,6.0,80,0.00,,,0.00,Rainwise IP-100,2013-02-07 13:08:00,
2013-02-07 07:13:00,38.0,32.0,30.01,NNW,337,6.0,6.0,80,0.00,,,0.00,Rainwise IP-100,2013-02-07 13:13:00,
2013-02-07 07:18:00,38.0,32.0,30.02,NNW,337,7.0,7.0,80,0.00,,,0.00,Rainwise IP-100,2013-02-07 13:18:00,
2013-02-07 07:23:00,38.0,33.0,30.02,NNW,337,5.0,7.0,82,0.00,,,0.00,Rainwise IP-100,2013-02-07 13:23:00,
2013-02-07 07:28:00,39.0,33.0,30.02,NE,45,1.0,6.0,80,0.00,,,0.00,Rainwise IP-100,2013-02-07 13:28:00,
2013-02-07 07:33:00,40.0,35.0,30.02,NW,315,0.0,5.0,78,0.00,,,0.00,Rainwise IP-100,2013-02-07 13:33:00,
2013-02-07 07:38:00,40.0,35.0,30.01,SSW,202,0.0,2.0,78,0.00,,,0.00,Rainwise IP-100,2013-02-07 13:38:00,
2013-02-07 07:41:00,40.0,33.0,30.01,SSW,202,0.0,1.0,77,0.00,,,0.00,Rainwise IP-100,2013-02-07 13:41:00,
2013-02-07 07:46:00,41.0,35.0,30.02,South,180,3.0,4.0,75,0.00,,,0.00,Rainwise IP-100,2013-02-07 13:46:00,
2013-02-07 07:51:00,41.0,33.0,30.02,SSW,202,1.0,6.0,74,0.00,,,0.00,Rainwise IP-100,2013-02-07 13:51:00,
2013-02-07 07:56:00,43.0,35.0,30.02,SE,135,1.0,7.0,71,0.00,,,0.00,Rainwise IP-100,2013-02-07 13:56:00,
2013-02-07 08:01:00,43.0,35.0,30.02,SSE,157,6.0,7.0,72,0.00,,,0.00,Rainwise IP-100,2013-02-07 14:01:00,
2013-02-07 08:06:00,44.0,36.0,30.02,East,90,0.0,6.0,74,0.00,,,0.00,Rainwise IP-100,2013-02-07 14:06:00,
2013-02-07 08:11:00,44.0,35.0,30.02,ESE,112,0.0,6.0,68,0.00,,,0.00,Rainwise IP-100,2013-02-07 14:11:00,
2013-02-07 08:16:00,46.0,36.0,30.02,East,90,1.0,3.0,69,0.00,,,0.00,Rainwise IP-100,2013-02-07 14:16:00,
2013-02-07 08:21:00,46.0,35.0,30.02,ENE,67,2.0,4.0,65,0.00,,,0.00,Rainwise IP-100,2013-02-07 14:21:00,
2013-02-07 08:26:00,47.0,35.0,30.02,East,90,4.0,4.0,63,0.00,,,0.00,Rainwise IP-100,2013-02-07 14:26:00,
2013-02-07 08:31:00,47.0,35.0,30.02,ENE,67,1.0,5.0,64,0.00,,,0.00,Rainwise IP-100,2013-02-07 14:31:00,
2013-02-07 08:36:00,47.0,35.0,30.02,ENE,67,4.0,6.0,63,0.00,,,0.00,Rainwise IP-100,2013-02-07 14:36:00,
2013-02-07 08:41:00,48.0,36.0,30.02,East,90,2.0,5.0,62,0.00,,,0.00,Rainwise IP-100,2013-02-07 14:41:00,
2013-02-07 08:46:00,49.0,36.0,30.01,East,90,0.0,4.0,60,0.00,,,0.00,Rainwise IP-100,2013-02-07 14:46:00,
2013-02-07 08:51:00,50.0,36.0,30.01,SE,135,2.0,6.0,58,0.00,,,0.00,Rainwise IP-100,2013-02-07 14:51:00,
2013-02-07 08:56:00,51.0,36.0,30.01,South,180,2.0,4.0,55,0.00,,,0.00,Rainwise IP-100,2013-02-07 14:56:00,
2013-02-07 09:01:00,51.0,37.0,30.01,SE,135,1.0,6.0,57,0.00,,,0.00,Rainwise IP-100,2013-02-07 15:01:00,
2013-02-07 09:06:00,53.0,37.0,30.00,SE,135,0.0,1.0,55,0.00,,,0.00,Rainwise IP-100,2013-02-07 15:06:00,
2013-02-07 09:11:00,54.0,37.0,30.00,ESE,112,2.0,4.0,52,0.00,,,0.00,Rainwise IP-100,2013-02-07 15:11:00,
2013-02-07 09:16:00,54.0,36.0,30.00,SSW,202,1.0,6.0,50,0.00,,,0.00,Rainwise IP-100,2013-02-07 15:16:00,
2013-02-07 09:21:00,55.0,38.0,30.00,North,360,2.0,4.0,52,0.00,,,0.00,Rainwise IP-100,2013-02-07 15:21:00,
2013-02-07 09:26:00,54.0,36.0,30.00,NNW,337,2.0,6.0,51,0.00,,,0.00,Rainwise IP-100,2013-02-07 15:26:00,
2013-02-07 09:31:00,55.0,37.0,30.00,NE,45,1.0,5.0,50,0.00,,,0.00,Rainwise IP-100,2013-02-07 15:31:00,
2013-02-07 09:36:00,56.0,38.0,29.99,East,90,0.0,4.0,50,0.00,,,0.00,Rainwise IP-100,2013-02-07 15:36:00,
2013-02-07 09:41:00,56.0,36.0,29.99,SW,225,3.0,5.0,47,0.00,,,0.00,Rainwise IP-100,2013-02-07 15:41:00,
2013-02-07 09:46:00,56.0,36.0,29.99,SSE,157,4.0,6.0,47,0.00,,,0.00,Rainwise IP-100,2013-02-07 15:46:00,
2013-02-07 09:51:00,57.0,38.0,29.99,SE,135,5.0,7.0,48,0.00,,,0.00,Rainwise IP-100,2013-02-07 15:51:00,
2013-02-07 09:56:00,57.0,38.0,29.98,SW,225,5.0,6.0,48,0.00,,,0.00,Rainwise IP-100,2013-02-07 15:56:00,
2013-02-07 10:01:00,56.0,38.0,29.98,SE,135,6.0,8.0,50,0.00,,,0.00,Rainwise IP-100,2013-02-07 16:01:00,
2013-02-07 10:06:00,57.0,38.0,29.98,SSW,202,3.0,8.0,48,0.00,,,0.00,Rainwise IP-100,2013-02-07 16:06:00,
2013-02-07 10:11:00,58.0,38.0,29.98,South,180,5.0,9.0,47,0.00,,,0.00,Rainwise IP-100,2013-02-07 16:11:00,
2013-02-07 10:16:00,59.0,38.0,29.98,SW,225,5.0,9.0,46,0.00,,,0.00,Rainwise IP-100,2013-02-07 16:16:00,
2013-02-07 10:21:00,59.0,38.0,29.98,SW,225,5.0,13.0,46,0.00,,,0.00,Rainwise IP-100,2013-02-07 16:21:00,
2013-02-07 10:26:00,59.0,39.0,29.98,SW,225,2.0,7.0,47,0.00,,,0.00,Rainwise IP-100,2013-02-07 16:26:00,
2013-02-07 10:31:00,60.0,39.0,29.98,SE,135,3.0,8.0,46,0.00,,,0.00,Rainwise IP-100,2013-02-07 16:31:00,
2013-02-07 10:36:00,60.0,38.0,29.97,South,180,2.0,7.0,45,0.00,,,0.00,Rainwise IP-100,2013-02-07 16:36:00,
2013-02-07 10:41:00,59.0,38.0,29.97,South,180,4.0,7.0,46,0.00,,,0.00,Rainwise IP-100,2013-02-07 16:41:00,
2013-02-07 10:46:00,60.0,39.0,29.97,SSW,202,4.0,8.0,46,0.00,,,0.00,Rainwise IP-100,2013-02-07 16:46:00,
2013-02-07 10:51:00,60.0,39.0,29.97,SSW,202,4.0,7.0,46,0.00,,,0.00,Rainwise IP-100,2013-02-07 16:51:00,
2013-02-07 10:56:00,60.0,39.0,29.96,South,180,1.0,9.0,46,0.00,,,0.00,Rainwise IP-100,2013-02-07 16:56:00,
2013-02-07 11:01:00,61.0,40.0,29.96,SE,135,5.0,9.0,46,0.00,,,0.00,Rainwise IP-100,2013-02-07 17:01:00,
2013-02-07 11:06:00,61.0,39.0,29.95,South,180,6.0,9.0,44,0.00,,,0.00,Rainwise IP-100,2013-02-07 17:06:00,
2013-02-07 11:11:00,61.0,40.0,29.95,South,180,8.0,12.0,46,0.00,,,0.00,Rainwise IP-100,2013-02-07 17:11:00,
2013-02-07 11:16:00,62.0,41.0,29.94,SSW,202,3.0,9.0,46,0.00,,,0.00,Rainwise IP-100,2013-02-07 17:16:00,
2013-02-07 11:21:00,61.0,40.0,29.94,SSW,202,3.0,10.0,47,0.00,,,0.00,Rainwise IP-100,2013-02-07 17:21:00,
2013-02-07 11:26:00,62.0,41.0,29.93,SE,135,7.0,11.0,47,0.00,,,0.00,Rainwise IP-100,2013-02-07 17:26:00,
2013-02-07 11:31:00,63.0,41.0,29.93,South,180,6.0,12.0,45,0.00,,,0.00,Rainwise IP-100,2013-02-07 17:31:00,
2013-02-07 11:36:00,63.0,41.0,29.92,South,180,5.0,10.0,44,0.00,,,0.00,Rainwise IP-100,2013-02-07 17:36:00,
2013-02-07 11:41:00,63.0,41.0,29.92,SSW,202,8.0,12.0,45,0.00,,,0.00,Rainwise IP-100,2013-02-07 17:41:00,
2013-02-07 11:46:00,63.0,41.0,29.91,South,180,6.0,11.0,44,0.00,,,0.00,Rainwise IP-100,2013-02-07 17:46:00,
2013-02-07 11:51:00,64.0,42.0,29.91,South,180,7.0,11.0,45,0.00,,,0.00,Rainwise IP-100,2013-02-07 17:51:00,
2013-02-07 11:56:00,63.0,41.0,29.91,SE,135,7.0,10.0,44,0.00,,,0.00,Rainwise IP-100,2013-02-07 17:56:00,
2013-02-07 12:01:00,64.0,42.0,29.91,SW,225,6.0,10.0,45,0.00,,,0.00,Rainwise IP-100,2013-02-07 18:01:00,
2013-02-07 12:06:00,64.0,43.0,29.91,SSW,202,1.0,13.0,46,0.00,,,0.00,Rainwise IP-100,2013-02-07 18:06:00,
2013-02-07 12:11:00,64.0,42.0,29.89,SSE,157,4.0,16.0,45,0.00,,,0.00,Rainwise IP-100,2013-02-07 18:11:00,
2013-02-07 12:16:00,65.0,43.0,29.89,South,180,8.0,10.0,45,0.00,,,0.00,Rainwise IP-100,2013-02-07 18:16:00,
2013-02-07 12:21:00,64.0,41.0,29.89,SSE,157,10.0,12.0,44,0.00,,,0.00,Rainwise IP-100,2013-02-07 18:21:00,
2013-02-07 12:26:00,65.0,43.0,29.89,SSW,202,6.0,12.0,45,0.00,,,0.00,Rainwise IP-100,2013-02-07 18:26:00,
2013-02-07 12:31:00,65.0,42.0,29.89,South,180,5.0,9.0,44,0.00,,,0.00,Rainwise IP-100,2013-02-07 18:31:00,
2013-02-07 12:36:00,65.0,43.0,29.89,SSW,202,4.0,10.0,45,0.00,,,0.00,Rainwise IP-100,2013-02-07 18:36:00,
2013-02-07 12:41:00,65.0,43.0,29.89,SSE,157,6.0,12.0,45,0.00,,,0.00,Rainwise IP-100,2013-02-07 18:41:00,
2013-02-07 12:46:00,66.0,43.0,29.89,South,180,7.0,9.0,44,0.00,,,0.00,Rainwise IP-100,2013-02-07 18:46:00,
2013-02-07 12:51:00,65.0,42.0,29.88,SE,135,3.0,9.0,44,0.00,,,0.00,Rainwise IP-100,2013-02-07 18:51:00,
2013-02-07 12:56:00,66.0,43.0,29.88,South,180,6.0,9.0,44,0.00,,,0.00,Rainwise IP-100,2013-02-07 18:56:00,
2013-02-07 13:01:00,67.0,44.0,29.88,South,180,5.0,9.0,43,0.00,,,0.00,Rainwise IP-100,2013-02-07 19:01:00,
2013-02-07 13:06:00,66.0,45.0,29.88,SW,225,6.0,12.0,47,0.00,,,0.00,Rainwise IP-100,2013-02-07 19:06:00,
2013-02-07 13:11:00,68.0,47.0,29.88,South,180,2.0,10.0,46,0.00,,,0.00,Rainwise IP-100,2013-02-07 19:11:00,
2013-02-07 13:16:00,67.0,46.0,29.87,South,180,9.0,10.0,46,0.00,,,0.00,Rainwise IP-100,2013-02-07 19:16:00,
2013-02-07 13:21:00,67.0,47.0,29.87,SSE,157,4.0,9.0,48,0.00,,,0.00,Rainwise IP-100,2013-02-07 19:21:00,
2013-02-07 13:26:00,66.0,47.0,29.87,SSE,157,3.0,14.0,50,0.00,,,0.00,Rainwise IP-100,2013-02-07 19:26:00,
2013-02-07 13:31:00,67.0,47.0,29.87,SW,225,2.0,11.0,48,0.00,,,0.00,Rainwise IP-100,2013-02-07 19:31:00,
2013-02-07 13:36:00,66.0,47.5,29.87,SSW,202,9.0,11.0,51,0.00,,,0.00,Rainwise IP-100,2013-02-07 19:36:00,
2013-02-07 13:41:00,66.0,48.0,29.87,South,180,4.0,15.0,53,0.00,,,0.00,Rainwise IP-100,2013-02-07 19:41:00,
2013-02-07 13:46:00,66.0,47.5,29.87,SSW,202,9.0,13.0,52,0.00,,,0.00,Rainwise IP-100,2013-02-07 19:46:00,
2013-02-07 13:51:00,66.0,49.0,29.87,SSE,157,3.0,14.0,54,0.00,,,0.00,Rainwise IP-100,2013-02-07 19:51:00,
2013-02-07 13:56:00,66.0,47.5,29.87,SSW,202,5.0,11.0,52,0.00,,,0.00,Rainwise IP-100,2013-02-07 19:56:00,
2013-02-07 14:01:00,65.0,47.5,29.87,South,180,6.0,11.0,53,0.00,,,0.00,Rainwise IP-100,2013-02-07 20:01:00,
2013-02-07 14:06:00,66.0,47.5,29.86,South,180,4.0,10.0,52,0.00,,,0.00,Rainwise IP-100,2013-02-07 20:06:00,
2013-02-07 14:11:00,65.0,47.5,29.86,South,180,7.0,13.0,54,0.00,,,0.00,Rainwise IP-100,2013-02-07 20:11:00,
2013-02-07 14:16:00,65.0,47.5,29.87,SW,225,6.0,13.0,54,0.00,,,0.00,Rainwise IP-100,2013-02-07 20:16:00,
2013-02-07 14:21:00,65.0,47.5,29.87,South,180,6.0,9.0,53,0.00,,,0.00,Rainwise IP-100,2013-02-07 20:21:00,
2013-02-07 14:26:00,65.0,47.5,29.86,SW,225,7.0,9.0,53,0.00,,,0.00,Rainwise IP-100,2013-02-07 20:26:00,
2013-02-07 14:31:00,65.0,47.5,29.86,South,180,5.0,10.0,54,0.00,,,0.00,Rainwise IP-100,2013-02-07 20:31:00,
2013-02-07 14:36:00,65.0,47.5,29.85,South,180,6.0,11.0,54,0.00,,,0.00,Rainwise IP-100,2013-02-07 20:36:00,
2013-02-07 14:41:00,65.0,47.5,29.85,SW,225,9.0,10.0,54,0.00,,,0.00,Rainwise IP-100,2013-02-07 20:41:00,
2013-02-07 14:46:00,65.0,48.0,29.85,SW,225,6.0,13.0,55,0.00,,,0.00,Rainwise IP-100,2013-02-07 20:46:00,
2013-02-07 14:51:00,65.0,48.0,29.85,South,180,4.0,7.0,55,0.00,,,0.00,Rainwise IP-100,2013-02-07 20:51:00,
2013-02-07 14:56:00,65.0,48.0,29.85,SW,225,2.0,9.0,55,0.00,,,0.00,Rainwise IP-100,2013-02-07 20:56:00,
2013-02-07 15:01:00,65.0,48.0,29.85,SW,225,6.0,6.0,55,0.00,,,0.00,Rainwise IP-100,2013-02-07 21:01:00,
2013-02-07 15:06:00,65.0,48.0,29.84,SW,225,6.0,8.0,55,0.00,,,0.00,Rainwise IP-100,2013-02-07 21:06:00,
2013-02-07 15:11:00,65.0,47.5,29.84,SW,225,5.0,7.0,54,0.00,,,0.00,Rainwise IP-100,2013-02-07 21:11:00,
2013-02-07 15:16:00,65.0,48.0,29.84,SW,225,4.0,11.0,55,0.00,,,0.00,Rainwise IP-100,2013-02-07 21:16:00,
2013-02-07 15:21:00,65.0,48.0,29.84,SSW,202,3.0,7.0,55,0.00,,,0.00,Rainwise IP-100,2013-02-07 21:21:00,
2013-02-07 15:26:00,65.0,47.5,29.84,SW,225,6.0,9.0,54,0.00,,,0.00,Rainwise IP-100,2013-02-07 21:26:00,
2013-02-07 15:31:00,65.0,48.0,29.84,SSW,202,4.0,9.0,55,0.00,,,0.00,Rainwise IP-100,2013-02-07 21:31:00,
2013-02-07 15:36:00,65.0,48.0,29.83,SSW,202,5.0,7.0,55,0.00,,,0.00,Rainwise IP-100,2013-02-07 21:36:00,
2013-02-07 15:41:00,65.0,49.0,29.83,SW,225,3.0,7.0,56,0.00,,,0.00,Rainwise IP-100,2013-02-07 21:41:00,
2013-02-07 15:46:00,65.0,49.0,29.83,SW,225,5.0,8.0,56,0.00,,,0.00,Rainwise IP-100,2013-02-07 21:46:00,
2013-02-07 15:51:00,65.0,48.0,29.83,South,180,6.0,8.0,55,0.00,,,0.00,Rainwise IP-100,2013-02-07 21:51:00,
2013-02-07 15:56:00,65.0,48.0,29.83,South,180,2.0,7.0,55,0.00,,,0.00,Rainwise IP-100,2013-02-07 21:56:00,
2013-02-07 16:01:00,65.0,49.0,29.83,SSW,202,5.0,8.0,56,0.00,,,0.00,Rainwise IP-100,2013-02-07 22:01:00,
2013-02-07 16:06:00,65.0,48.0,29.82,SW,225,6.0,6.0,55,0.00,,,0.00,Rainwise IP-100,2013-02-07 22:06:00,
2013-02-07 16:11:00,65.0,48.0,29.82,SW,225,2.0,6.0,55,0.00,,,0.00,Rainwise IP-100,2013-02-07 22:11:00,
2013-02-07 16:16:00,65.0,49.0,29.82,SW,225,6.0,9.0,56,0.00,,,0.00,Rainwise IP-100,2013-02-07 22:16:00,
2013-02-07 16:21:00,64.0,48.0,29.82,SSW,202,5.0,10.0,57,0.00,,,0.00,Rainwise IP-100,2013-02-07 22:21:00,
2013-02-07 16:26:00,65.0,49.0,29.82,SW,225,6.0,7.0,57,0.00,,,0.00,Rainwise IP-100,2013-02-07 22:26:00,
2013-02-07 16:31:00,64.0,48.0,29.82,SSW,202,5.0,7.0,57,0.00,,,0.00,Rainwise IP-100,2013-02-07 22:31:00,
2013-02-07 16:36:00,64.0,48.0,29.82,SW,225,4.0,9.0,57,0.00,,,0.00,Rainwise IP-100,2013-02-07 22:36:00,
2013-02-07 16:41:00,64.0,48.0,29.82,SSW,202,6.0,7.0,57,0.00,,,0.00,Rainwise IP-100,2013-02-07 22:41:00,
2013-02-07 16:46:00,64.0,49.0,29.82,SSW,202,0.0,6.0,58,0.00,,,0.00,Rainwise IP-100,2013-02-07 22:46:00,
2013-02-07 16:51:00,63.0,48.0,29.82,SSW,202,2.0,5.0,58,0.00,,,0.00,Rainwise IP-100,2013-02-07 22:51:00,
2013-02-07 16:56:00,63.0,48.0,29.83,SSW,202,2.0,3.0,59,0.00,,,0.00,Rainwise IP-100,2013-02-07 22:56:00,
2013-02-07 17:01:00,63.0,49.0,29.83,SSW,202,2.0,3.0,60,0.00,,,0.00,Rainwise IP-100,2013-02-07 23:01:00,
2013-02-07 17:06:00,63.0,49.0,29.82,SW,225,3.0,5.0,60,0.00,,,0.00,Rainwise IP-100,2013-02-07 23:06:00,
2013-02-07 17:11:00,62.0,48.0,29.82,SW,225,1.0,6.0,60,0.00,,,0.00,Rainwise IP-100,2013-02-07 23:11:00,
2013-02-07 17:16:00,62.0,48.0,29.82,SW,225,0.0,4.0,61,0.00,,,0.00,Rainwise IP-100,2013-02-07 23:16:00,
2013-02-07 17:21:00,62.0,49.0,29.82,SW,225,0.0,1.0,62,0.00,,,0.00,Rainwise IP-100,2013-02-07 23:21:00,
2013-02-07 17:26:00,62.0,49.0,29.82,South,180,2.0,3.0,62,0.00,,,0.00,Rainwise IP-100,2013-02-07 23:26:00,
2013-02-07 17:31:00,61.0,48.0,29.82,South,180,0.0,2.0,63,0.00,,,0.00,Rainwise IP-100,2013-02-07 23:31:00,
2013-02-07 17:36:00,61.0,48.0,29.82,South,180,0.0,0.0,63,0.00,,,0.00,Rainwise IP-100,2013-02-07 23:36:00,
2013-02-07 17:41:00,60.0,47.5,29.83,South,180,0.0,0.0,64,0.00,,,0.00,Rainwise IP-100,2013-02-07 23:41:00,
2013-02-07 17:46:00,61.0,49.0,29.83,South,180,0.0,0.0,65,0.00,,,0.00,Rainwise IP-100,2013-02-07 23:46:00,
2013-02-07 17:51:00,60.0,48.0,29.83,SW,225,2.0,3.0,65,0.00,,,0.00,Rainwise IP-100,2013-02-07 23:51:00,
2013-02-07 17:56:00,60.0,48.0,29.83,SW,225,2.0,3.0,65,0.00,,,0.00,Rainwise IP-100,2013-02-07 23:56:00,
2013-02-07 18:01:00,60.0,48.0,29.83,SW,225,1.0,3.0,65,0.00,,,0.00,Rainwise IP-100,2013-02-08 00:01:00,
2013-02-07 18:06:00,60.0,48.0,29.84,SW,225,1.0,3.0,65,0.00,,,0.00,Rainwise IP-100,2013-02-08 00:06:00,
2013-02-07 18:11:00,60.0,48.0,29.84,SSW,202,1.0,3.0,66,0.00,,,0.00,Rainwise IP-100,2013-02-08 00:11:00,
2013-02-07 18:16:00,60.0,48.0,29.83,SSW,202,1.0,3.0,66,0.00,,,0.00,Rainwise IP-100,2013-02-08 00:16:00,
2013-02-07 18:21:00,59.0,48.0,29.83,SSW,202,1.0,2.0,67,0.00,,,0.00,Rainwise IP-100,2013-02-08 00:21:00,
2013-02-07 18:26:00,59.0,48.0,29.84,SSW,202,2.0,3.0,68,0.00,,,0.00,Rainwise IP-100,2013-02-08 00:26:00,
2013-02-07 18:31:00,59.0,49.0,29.84,SSW,202,2.0,2.0,69,0.00,,,0.00,Rainwise IP-100,2013-02-08 00:31:00,
2013-02-07 18:36:00,59.0,48.0,29.84,SW,225,2.0,3.0,68,0.00,,,0.00,Rainwise IP-100,2013-02-08 00:36:00,
2013-02-07 18:41:00,59.0,48.0,29.84,SSW,202,2.0,6.0,68,0.00,,,0.00,Rainwise IP-100,2013-02-08 00:41:00,
2013-02-07 18:46:00,59.0,48.0,29.84,SW,225,3.0,4.0,68,0.00,,,0.00,Rainwise IP-100,2013-02-08 00:46:00,
2013-02-07 18:51:00,59.0,48.0,29.84,South,180,1.0,4.0,68,0.00,,,0.00,Rainwise IP-100,2013-02-08 00:51:00,
2013-02-07 18:56:00,60.0,49.0,29.83,South,180,2.0,2.0,68,0.00,,,0.00,Rainwise IP-100,2013-02-08 00:56:00,
2013-02-07 19:01:00,59.0,48.0,29.83,South,180,0.0,3.0,68,0.00,,,0.00,Rainwise IP-100,2013-02-08 01:01:00,
2013-02-07 19:06:00,59.0,48.0,29.84,South,180,0.0,3.0,68,0.00,,,0.00,Rainwise IP-100,2013-02-08 01:06:00,
2013-02-07 19:11:00,59.0,49.0,29.84,South,180,1.0,2.0,69,0.00,,,0.00,Rainwise IP-100,2013-02-08 01:11:00,
2013-02-07 19:16:00,59.0,49.0,29.84,South,180,1.0,3.0,69,0.00,,,0.00,Rainwise IP-100,2013-02-08 01:16:00,
2013-02-07 19:21:00,59.0,49.0,29.84,South,180,2.0,2.0,69,0.00,,,0.00,Rainwise IP-100,2013-02-08 01:21:00,
2013-02-07 19:26:00,59.0,49.0,29.84,South,180,1.0,3.0,69,0.00,,,0.00,Rainwise IP-100,2013-02-08 01:26:00,
2013-02-07 19:31:00,59.0,49.0,29.84,South,180,2.0,2.0,69,0.00,,,0.00,Rainwise IP-100,2013-02-08 01:31:00,
2013-02-07 19:36:00,59.0,49.0,29.83,South,180,2.0,2.0,69,0.00,,,0.00,Rainwise IP-100,2013-02-08 01:36:00,
2013-02-07 19:41:00,59.0,49.0,29.83,South,180,2.0,3.0,69,0.00,,,0.00,Rainwise IP-100,2013-02-08 01:41:00,
2013-02-07 19:46:00,59.0,49.0,29.83,South,180,2.0,3.0,69,0.00,,,0.00,Rainwise IP-100,2013-02-08 01:46:00,
2013-02-07 19:51:00,58.0,48.0,29.83,South,180,3.0,3.0,70,0.00,,,0.00,Rainwise IP-100,2013-02-08 01:51:00,
2013-02-07 19:56:00,59.0,49.0,29.83,South,180,2.0,3.0,70,0.00,,,0.00,Rainwise IP-100,2013-02-08 01:56:00,
2013-02-07 20:01:00,58.0,48.0,29.83,South,180,1.0,4.0,70,0.00,,,0.00,Rainwise IP-100,2013-02-08 02:01:00,
2013-02-07 20:06:00,59.0,49.0,29.83,South,180,2.0,4.0,70,0.00,,,0.00,Rainwise IP-100,2013-02-08 02:06:00,
2013-02-07 20:11:00,59.0,49.0,29.83,South,180,2.0,4.0,70,0.00,,,0.00,Rainwise IP-100,2013-02-08 02:11:00,
2013-02-07 20:16:00,59.0,49.0,29.83,South,180,3.0,5.0,70,0.00,,,0.00,Rainwise IP-100,2013-02-08 02:16:00,
2013-02-07 20:21:00,59.0,49.0,29.83,South,180,2.0,4.0,70,0.00,,,0.00,Rainwise IP-100,2013-02-08 02:21:00,
2013-02-07 20:26:00,59.0,49.0,29.83,South,180,3.0,4.0,70,0.00,,,0.00,Rainwise IP-100,2013-02-08 02:26:00,
2013-02-07 20:31:00,59.0,49.0,29.83,South,180,2.0,4.0,70,0.00,,,0.00,Rainwise IP-100,2013-02-08 02:31:00,
2013-02-07 20:36:00,59.0,49.0,29.83,SW,225,3.0,5.0,70,0.00,,,0.00,Rainwise IP-100,2013-02-08 02:36:00,
2013-02-07 20:41:00,59.0,50.0,29.83,SW,225,3.0,4.0,71,0.00,,,0.00,Rainwise IP-100,2013-02-08 02:41:00,
2013-02-07 20:46:00,59.0,50.0,29.83,SSW,202,5.0,5.0,71,0.00,,,0.00,Rainwise IP-100,2013-02-08 02:46:00,
2013-02-07 20:51:00,58.0,49.0,29.83,SSW,202,3.0,6.0,72,0.00,,,0.00,Rainwise IP-100,2013-02-08 02:51:00,
2013-02-07 20:56:00,59.0,50.5,29.83,SW,225,2.0,6.0,73,0.00,,,0.00,Rainwise IP-100,2013-02-08 02:56:00,
2013-02-07 21:01:00,58.0,50.0,29.83,SW,225,2.0,5.0,74,0.00,,,0.00,Rainwise IP-100,2013-02-08 03:01:00,
2013-02-07 21:06:00,58.0,50.0,29.83,SW,225,0.0,4.0,74,0.00,,,0.00,Rainwise IP-100,2013-02-08 03:06:00,
2013-02-07 21:11:00,58.0,50.5,29.83,SW,225,0.0,4.0,75,0.00,,,0.00,Rainwise IP-100,2013-02-08 03:11:00,
2013-02-07 21:16:00,58.0,50.5,29.83,SW,225,0.0,1.0,76,0.00,,,0.00,Rainwise IP-100,2013-02-08 03:16:00,
2013-02-07 21:21:00,57.0,50.0,29.83,SW,225,0.0,2.0,77,0.00,,,0.00,Rainwise IP-100,2013-02-08 03:21:00,
2013-02-07 21:26:00,57.0,50.5,29.83,SW,225,1.0,3.0,78,0.00,,,0.00,Rainwise IP-100,2013-02-08 03:26:00,
2013-02-07 21:31:00,57.0,51.0,29.83,SW,225,2.0,3.0,81,0.00,,,0.00,Rainwise IP-100,2013-02-08 03:31:00,
2013-02-07 21:36:00,57.0,52.0,29.83,SW,225,0.0,3.0,83,0.06,,,0.01,Rainwise IP-100,2013-02-08 03:36:00,
2013-02-07 21:41:00,56.0,52.0,29.83,SW,225,0.0,0.0,86,0.06,,,0.01,Rainwise IP-100,2013-02-08 03:41:00,
2013-02-07 21:46:00,56.0,52.0,29.83,SW,225,0.0,3.0,87,0.00,,,0.01,Rainwise IP-100,2013-02-08 03:46:00,
2013-02-07 21:51:00,56.0,53.0,29.84,WSW,247,1.0,0.0,89,0.12,,,0.03,Rainwise IP-100,2013-02-08 03:51:00,
2013-02-07 21:56:00,56.0,53.5,29.84,West,270,4.0,4.0,91,0.18,,,0.04,Rainwise IP-100,2013-02-08 03:56:00,
2013-02-07 22:01:00,55.0,53.0,29.84,West,270,4.0,5.0,91,0.06,,,0.04,Rainwise IP-100,2013-02-08 04:01:00,
2013-02-07 22:06:00,55.0,53.5,29.84,West,270,0.0,7.0,93,0.06,,,0.05,Rainwise IP-100,2013-02-08 04:06:00,
2013-02-07 22:11:00,55.0,53.5,29.84,West,270,0.0,1.0,94,0.06,,,0.05,Rainwise IP-100,2013-02-08 04:11:00,
2013-02-07 22:16:00,54.0,52.0,29.84,West,270,0.0,0.0,94,0.06,,,0.06,Rainwise IP-100,2013-02-08 04:16:00,
2013-02-07 22:21:00,54.0,53.0,29.84,SW,225,1.0,2.0,95,0.12,,,0.07,Rainwise IP-100,2013-02-08 04:21:00,
2013-02-07 22:26:00,52.0,50.5,29.86,SSW,202,3.0,4.0,94,0.06,,,0.08,Rainwise IP-100,2013-02-08 04:26:00,
2013-02-07 22:31:00,52.0,51.0,29.86,SW,225,4.0,6.0,97,0.12,,,0.09,Rainwise IP-100,2013-02-08 04:31:00,
2013-02-07 22:36:00,53.0,52.0,29.85,SW,225,2.0,4.0,97,0.30,,,0.12,Rainwise IP-100,2013-02-08 04:36:00,
2013-02-07 22:41:00,53.0,52.0,29.85,SW,225,1.0,4.0,97,0.24,,,0.13,Rainwise IP-100,2013-02-08 04:41:00,
2013-02-07 22:46:00,53.0,52.0,29.85,SW,225,0.0,3.0,97,0.12,,,0.14,Rainwise IP-100,2013-02-08 04:46:00,
2013-02-07 22:51:00,53.0,52.0,29.85,SW,225,3.0,0.0,97,0.12,,,0.17,Rainwise IP-100,2013-02-08 04:51:00,
2013-02-07 22:56:00,53.0,52.0,29.85,SW,225,0.0,4.0,97,0.36,,,0.21,Rainwise IP-100,2013-02-08 04:56:00,
2013-02-07 23:00:00,53.0,52.0,29.85,SW,225,2.0,3.0,97,0.42,,,0.23,Rainwise IP-100,2013-02-08 05:00:00,
2013-02-07 23:05:00,53.0,52.0,29.85,SW,225,0.0,4.0,97,0.48,,,0.26,Rainwise IP-100,2013-02-08 05:05:00,
2013-02-07 23:10:00,53.0,52.0,29.85,SW,225,5.0,7.0,97,0.30,,,0.27,Rainwise IP-100,2013-02-08 05:10:00,
2013-02-07 23:15:00,53.0,52.0,29.85,WSW,247,2.0,7.0,97,0.24,,,0.31,Rainwise IP-100,2013-02-08 05:15:00,
2013-02-07 23:20:00,53.0,52.0,29.87,NW,315,6.0,10.0,97,0.36,,,0.33,Rainwise IP-100,2013-02-08 05:20:00,
2013-02-07 23:25:00,53.0,52.0,29.87,North,360,6.0,8.0,97,0.24,,,0.35,Rainwise IP-100,2013-02-08 05:25:00,
2013-02-07 23:30:00,53.0,52.0,29.86,NW,315,4.0,13.0,97,0.30,,,0.39,Rainwise IP-100,2013-02-08 05:30:00,
2013-02-07 23:35:00,53.0,52.0,29.86,NW,315,2.0,6.0,97,0.30,,,0.40,Rainwise IP-100,2013-02-08 05:35:00,
2013-02-07 23:40:00,53.0,52.0,29.87,North,360,1.0,7.0,97,0.12,,,0.40,Rainwise IP-100,2013-02-08 05:40:00,
2013-02-07 23:45:00,52.0,51.0,29.87,NNW,337,5.0,10.0,97,0.06,,,0.41,Rainwise IP-100,2013-02-08 05:45:00,
2013-02-07 23:50:00,52.0,51.0,29.87,North,360,4.0,8.0,97,0.06,,,0.41,Rainwise IP-100,2013-02-08 05:50:00,
2013-02-07 23:55:00,51.0,50.5,29.87,NNW,337,5.0,12.0,97,0.06,,,0.42,Rainwise IP-100,2013-02-08 05:55:00,